www.pogodaiklimat.ru

Погода и климат >> Архив погоды >> КНДР >> Чунган


ПОГОДА в Чунгане

  • Прогноз погоды в Чунгане
  • Монитор погоды в Чунгане

АРХИВ ПОГОДЫ в Чунгане

Время (UTC), дата Ветер
(напр.,м/с)
 
Видим.   Явления Облачность Т
(С)
Тd
(С)
f
(%)
Тe
(С)
Тes
(С)
Комфортность P
(гПа)
Po
(гПа)
Тmin
(С)
Tmax
(С)
R
(мм)
R24
(мм)
S
(см)
12 12.02 штиль 0 15 км ясно -17.1 -24.0 55 -17 -17 1034.5 990.7 -2.0
15 12.02 штиль 0 15 км ясно -20.4 -23.7 75 -20 -20 1036.0 991.6
18 12.02 штиль 0 15 км ясно -22.0 -24.5 80 -22 -22 1038.1 993.1
21 12.02 штиль 0 15 км ясно -24.6 -26.3 86 -25 -25 1039.1 993.5
00 13.02 штиль 0 15 км ясно -25.4 -26.5 90 -25 -23 1037.5 992.3 -26.3 400
03 13.02 штиль 0 15 км ясно -9.3 -15.7 60 -10 0 1035.7 993.0
06 13.02 штиль 0 15 км ясно -2.2 -15.5 35 -2 +3 1032.2 991.0
09 13.02 штиль 0 15 км ясно -8.5 -20.5 37 -9 -9 1032.8 990.5
12 13.02 штиль 0 15 км ясно -17.1 -23.0 60 -17 -17 1035.8 992.0 +0.5
15 13.02 штиль 0 15 км ясно -20.6 -23.7 76 -21 -21 1037.9 993.0
18 13.02 штиль 0 15 км ясно -21.8 -23.6 85 -22 -22 1037.9 993.0
21 13.02 штиль 0 15 км ясно -25.1 -26.9 85 -25 -25 1039.4 994.0
00 14.02 штиль 0 20 км ясно -23.6 -24.2 95 -24 -21 1040.4 995.4 -26.7 4
03 14.02 штиль 0 20 км ясно -10.3 -14.7 70 -11 -1 1036.2 993.6
06 14.02 штиль 0 20 км ясно -0.6 -12.1 41 -1 +5 1030.6 989.5
12 14.02 штиль 0 20 км 8/0
[Ci fib]
-14.1 -19.2 65 -14 -14 1030.1 987.0 +1.5
18 14.02 штиль 0 15 км 10/10 600 м
[Sc]
-11.7 -14.4 80 -12 -12 1028.9 986.1
00 15.02 штиль 0 10 км слаб. снег 10/0 600 м
[As op]
-10.5 -11.8 90 -11 -10 1025.2 982.7 -13.1 0.4 500
06 15.02 штиль 0 15 км 10/10 600 м
[Sc]
-10.7 -15.7 67 -11 -11 1021.2 978.8
12 15.02 штиль 0 15 км 10/10 600 м
[Sc]
-9.1 -10.4 90 -10 -10 1023.4 981.4 +0.2
18 15.02 штиль 0 15 км 10/10 600 м
[Sc]
-16.5 -17.1 95 -17 -17 1027.1 983.5
21 15.02 штиль 0 15 км 10/10 600 м
[Sc]
-17.5 -18.1 95 -18 -18 1028.3 984.5
00 16.02 штиль 0 15 км 10/10 600 м
[Sc]
-15.1 -15.7 95 -15 -15 1027.9 984.7 -17.5 600
03 16.02 штиль 0 15 км 8/8 600 м
[Sc]
-3.0 -5.7 82 -4 -2 1027.0 985.7
06 16.02 штиль 0 15 км 3/3 600 м
[Sc]
+1.4 -9.3 45 +1 +5 1023.8 983.1
09 16.02 штиль 0 15 км ясно -4.0 -14.0 46 -4 -4 1023.4 982.1
12 16.02 штиль 0 15 км ясно -14.5 -19.6 65 -15 -15 1026.2 983.1 +3.8
15 16.02 штиль 0 15 км ясно -17.1 -19.7 80 -17 -17 1027.7 984.1
18 16.02 штиль 0 15 км ясно -17.3 -17.9 95 -17 -17 1029.5 985.9
21 16.02 штиль 0 15 км ясно -21.2 -21.2 100 -21 -21 1029.6 985.1
00 17.02 штиль 0 15 км ясно -20.4 -21.0 95 -20 -18 1025.6 981.6 -23.7 400
03 17.02 штиль 0 15 км ясно -5.0 -10.8 64 -6 +5 1022.7 981.2
06 17.02 штиль 0 15 км ясно +3.0 -13.9 28 +3 +9 1021.2 981.0
09 17.02 штиль 0 15 км ясно -0.4 -10.2 48 -1 -1 1021.6 981.0
12 17.02 штиль 0 15 км ясно -9.7 -15.5 63 -10 -10 1024.5 982.3 +4.0
15 17.02 штиль 0 15 км ясно -14.5 -17.2 80 -15 -15 1027.4 984.2
18 17.02 штиль 0 15 км ясно -17.1 -18.5 89 -17 -17 1029.2 985.6
21 17.02 штиль 0 15 км ясно -17.3 -17.9 95 -17 -17 1030.3 986.7
00 18.02 штиль 0 15 км ясно -18.3 -18.9 95 -18 -15 1031.2 987.4 -19.5 400
03 18.02 штиль 0 15 км 5/0
[Ci fib]
-3.4 -9.0 65 -4 +6 1027.4 986.1
06 18.02 штиль 0 15 км 5/0
[Ci fib]
+5.4 -6.7 41 +5 +11 1025.2 985.1
09 18.02 штиль 0 15 км 5/0
[Ci fib]
-0.7 -6.7 64 -1 -1 1024.3 983.4
12 18.02 штиль 0 15 км 10/10 600 м
[Sc]
-4.4 -8.7 72 -5 -5 1024.7 983.2 +7.5
15 18.02 штиль 0 15 км 10/10 600 м
[Sc]
-5.8 -8.4 82 -7 -7 1024.9 983.1
18 18.02 штиль 0 15 км 10/10 600 м
[Sc]
-6.0 -7.5 89 -7 -7 1024.1 982.3
21 18.02 штиль 0 15 км 10/10 600 м
[Sc]
-6.5 -8.1 88 -7 -7 1022.8 981.1
00 19.02 штиль 0 15 км 10/10 600 м
[Sc]
-5.0 -6.3 91 -6 -6 1020.9 979.5 -8.0 300
03 19.02 штиль 0 15 км 10/10 600 м
[Sc]
-0.6 -4.0 78 -2 -2 1019.8 979.0
06 19.02 штиль 0 15 км 10/10 600 м
[Sc]
+2.8 -2.6 68 +2 +2 1017.0 977.0

 

Местоположение метеостанции Чунган (КНДР): широта 41.78 долгота 126.88 высота над уровнем моря 331 м.

В архиве по умолчанию представлена погода в Чунгане за последнюю неделю. Архивные данные за месяц целиком и за предыдущие месяцы, начиная с января 2011 года, Вы можете получить, выбрав интересующий диапазон дат из раскрывающегося списка и нажав кнопку "Ввод!".


*Определитесь, кто Вы:
робот инопланетянин человек

Внимание! Время в таблицах - всемирное. Для получения местного времени необходимо прибавить поправку, которая равна 9 ч.

Смотрите также архив погоды в соседних городах и на ближайших метеорологических станциях:

Погода в Линьцзяне (Гирин, Китай) (7 км)
Погода в Канге (КНДР) (93 км)
Погода в Цзиане (Цзяньси, Китай) (97 км)
Погода в Хесене (КНДР) (115 км)
Погода в Чанбае (Гирин, Китай) (117 км)
Погода в Самджиёне (КНДР) (118 км)
Погода в Хуадяне (Гирин, Китай) (134 км)
Погода в Пунгсане (КНДР) (151 км)
Погода в Джангджине (КНДР) (160 км)
Погода в Цинъюане (Гуандун, Китай) (164 км)

Пояснения к столбцам:

Ветер - указаны скорость ветра в м/с - средняя за 10 мин, порывы в срок и между сроками (в фигурных скобках) и направление, откуда дует ветер: С - северный, СВ - северо-восточный, В - восточный, ЮВ - юго-восточный, Ю - южный, ЮЗ - юго-западный, З - западный, СЗ - северо-западный.
Видимость - горизонтальная дальность видимости в метрах или километрах. При видимости от 1 до 10 км при отсутствии осадков обычно наблюдается дымка, при ухудшении видимости до 1 км и менее - туман. В сухую погоду видимость может ухудшаться дымом, пылью или мглою.
Явления - указаны атмосферные явления, наблюдавшиеся в срок или в последний час перед сроком; фигурными скобками обозначены явления, наблюдавшиеся между сроками (за 1-3 часа до срока); квадратными скобками обозначены град или гололедные отложения с указанием их диаметра в мм.
Облачность - указаны через наклонную черту общая и нижняя облачность в баллах и высота нижней границы облаков в метрах; квадратными скобками обозначены формы облаков: Ci - перистые, Cs - перисто-слоистые, Cc - перисто-кучевые, Ac - высококучевые, As - высокослоистые, Sc - слоисто-кучевые, Ns - слоисто-дождевые, Cu - кучевые, Cb - кучево-дождевые. Подробнее классификацию облаков см. в Атласе облаков (PDF).
T - Температура воздуха - температура, измеренная на высоте 2 м над землей.
Td - Температура точки росы - температура, при понижении до которой содержащийся в воздухе водяной пар достигнет насыщения.
f - Относительная влажность воздуха - влажноcть воздуха, измеренная на высоте 2 м над землей.
Te - Эффективная температура - температура, которую ощущает одетый по сезону человек в тени. Характеристика душности погоды. При расчете учитывается влияние влажности воздуха и скорости ветра на теплоощущения человека.
Tes - Эффективная температура на солнце - температура, которую ощущает человек, с поправкой на солнечный нагрев. Характеристика знойности погоды. Зависит от высоты солнца над горизонтом, облачности и скорости ветра. Ночью, в пасмурную погоду, а также при ветре 12 м/с и более поправка равна нулю.
P - Атмосферное давление - приведенное к уровню моря атмосферное давление.
Po - Атмосферное давление - измеренное на уровне метеостанции атмосферное давление.
Tmin - Минимальная температура - минимум температуры воздуха на высоте 2 м над землей.
Tmax - Максимальная температура - максимум температуры воздуха на высоте 2 м над землей.
R - Количество осадков - Количество выпавших осадков за период времени, мм. При наведении курсора мыши на число - период времени, за который выпало указанное количество осадков.
R24 - Количество осадков - Количество выпавших осадков за 24 часа, мм.
S - Снежный покров - Высота снежного покрова, см. При наведении курсора мыши на число - состояние снежного покрова и степень покрытия местности в баллах.